FW6620 Weather Reports


time (UTC)temp
F
wind
direction
speed
knots
gust
knots
rain 1hr
in
rain 24hr
in
rain mn
in
humidity
%
barometer
mb
20240222111047 65 0 0.0 3.5 0.00 0.00 0.00 85 1012.3
20240222110548 65 0 0.0 6.1 0.00 0.00 0.00 85 1012.5
20240222110058 65 0 0.0 6.1 0.00 0.00 0.00 85 1012.4
20240222105546 66 86 1.7 6.1 0.00 0.00 0.00 84 1011.8
20240222105047 66 167 0.0 0.0 0.00 0.00 0.00 84 1013.0
20240222104622 66 0 0.0 0.0 0.00 0.00 0.00 84 1013.4
20240222104046 66 0 0.0 0.0 0.00 0.00 0.00 84 1013.5
20240222103546 66 0 0.0 0.0 0.00 0.00 0.00 84 1013.7
20240222103048 66 0 0.0 0.9 0.00 0.00 0.00 84 1013.1
20240222102546 66 0 0.0 0.9 0.00 0.00 0.00 84 1013.2
20240222102047 66 0 0.0 0.0 0.00 0.00 0.00 83 1013.1
20240222101556 66 0 0.0 0.9 0.00 0.00 0.00 83 1013.2
20240222101046 66 0 0.0 1.7 0.00 0.00 0.00 83 1013.1
20240222100549 66 0 0.0 2.6 0.00 0.00 0.00 83 1013.1
20240222100050 66 0 0.0 3.5 0.00 0.00 0.00 83 1013.0
20240222095546 66 0 0.0 3.5 0.00 0.00 0.00 83 1013.2
20240222095046 66 0 0.0 1.7 0.00 0.00 0.00 83 1013.3
20240222094550 66 0 0.0 1.7 0.00 0.00 0.00 83 1013.2
20240222094047 66 109 0.0 1.7 0.00 0.00 0.00 84 1013.3
20240222093546 66 0 0.0 1.7 0.00 0.00 0.00 83 1013.1
20240222093050 66 0 0.0 2.6 0.00 0.00 0.00 83 1012.9
20240222092547 66 111 0.0 3.5 0.00 0.00 0.00 83 1013.0
20240222092049 66 111 0.0 3.5 0.00 0.00 0.00 83 1012.7
20240222091557 66 0 0.0 4.3 0.00 0.00 0.00 83 1012.3
20240222091046 66 0 0.0 4.3 0.00 0.00 0.00 83 1012.2
20240222090546 66 0 0.9 6.1 0.00 0.00 0.00 83 1012.1
20240222090053 66 0 0.9 6.1 0.00 0.00 0.00 83 1012.2
20240222085546 66 86 1.7 4.3 0.00 0.00 0.00 83 1012.1
20240222085047 66 0 0.0 5.2 0.00 0.00 0.00 83 1012.3
20240222084606 66 93 0.0 6.1 0.00 0.00 0.00 83 1012.3
20240222084047 66 90 0.0 7.0 0.00 0.00 0.00 82 1012.4
20240222083546 66 89 2.6 7.0 0.00 0.00 0.00 82 1012.5
20240222083052 66 0 0.9 7.0 0.00 0.00 0.00 83 1012.6
20240222082550 66 87 0.0 6.1 0.00 0.00 0.00 83 1012.5
20240222082047 66 111 0.9 10.4 0.00 0.00 0.00 82 1012.6
20240222081547 66 128 0.9 11.3 0.00 0.00 0.00 83 1012.7
20240222081046 66 74 0.9 11.3 0.00 0.00 0.00 82 1012.7
20240222080547 66 0 0.9 7.8 0.00 0.00 0.00 82 1012.8
20240222080051 66 88 0.0 8.7 0.00 0.00 0.00 82 1012.7
20240222075546 66 0 1.7 8.7 0.00 0.00 0.00 83 1012.8
20240222075046 66 117 0.0 4.3 0.00 0.00 0.00 83 1012.9
20240222074550 66 95 0.9 8.7 0.00 0.00 0.00 83 1012.9
20240222074050 66 0 1.7 8.7 0.00 0.00 0.00 83 1012.7
20240222073546 66 95 0.9 8.7 0.00 0.00 0.00 83 1012.7
20240222073047 66 91 2.6 11.3 0.00 0.00 0.00 83 1012.7
20240222072546 66 122 1.7 12.2 0.00 0.00 0.00 83 1012.6
20240222072046 66 103 1.7 12.2 0.00 0.00 0.00 83 1012.7
20240222071553 66 126 0.9 10.4 0.00 0.00 0.00 84 1012.8
20240222071047 66 109 2.6 10.4 0.00 0.00 0.00 84 1012.7
20240222070546 66 64 0.9 7.8 0.00 0.00 0.00 84 1013.0
20240222070103 66 45 1.7 7.8 0.00 0.00 0.00 84 1013.0
20240222065546 66 73 1.7 8.7 0.00 0.00 0.00 85 1013.0
20240222065046 66 49 0.9 9.6 0.00 0.00 0.00 85 1013.0
20240222064548 66 58 3.5 13.0 0.00 0.00 0.00 85 1013.1
20240222064050 66 0 2.6 13.0 0.00 0.00 0.00 85 1013.0
20240222063546 66 0 0.9 7.8 0.00 0.00 0.00 85 1013.0
20240222063052 66 99 1.7 8.7 0.00 0.00 0.00 85 1013.1
20240222062547 66 103 1.7 10.4 0.00 0.00 0.00 85 1013.3
20240222062046 65 65 1.7 10.4 0.00 0.00 0.00 85 1013.4
20240222061603 65 72 2.6 13.0 0.00 0.00 0.00 85 1013.6
20240222061046 66 75 1.7 13.0 0.00 0.00 0.00 85 1013.8
20240222060549 65 91 2.6 13.0 0.00 0.00 0.00 85 1013.8
20240222060101 66 124 0.9 6.1 0.00 0.00 0.00 85 1013.8
20240222055546 65 0 0.9 7.0 0.00 0.00 0.00 85 1014.0
20240222055046 66 109 0.9 7.0 0.00 0.00 0.00 85 1014.1
20240222054601 65 0 0.0 7.8 0.00 0.00 0.00 85 1014.0
20240222054050 65 145 1.7 7.8 0.00 0.00 0.00 85 1014.1
20240222053545 65 63 1.7 7.8 0.00 0.00 0.00 85 1014.2
20240222053057 66 0 2.6 7.8 0.00 0.00 0.00 85 1014.3
20240222052544 66 76 1.7 7.0 0.00 0.00 0.00 85 1014.4
20240222052044 66 89 0.9 8.7 0.00 0.00 0.00 85 1014.6
20240222051601 66 72 0.0 8.7 0.00 0.00 0.00 85 1014.7
20240222051044 66 166 2.6 8.7 0.00 0.00 0.00 85 1014.6
20240222050550 66 85 0.9 9.6 0.00 0.00 0.00 85 1014.5
20240222050100 66 67 0.9 11.3 0.00 0.00 0.00 85 1014.4
20240222045545 66 98 2.6 11.3 0.00 0.00 0.00 85 1014.5
20240222045047 66 101 2.6 11.3 0.00 0.00 0.00 84 1014.4
20240222044616 66 66 0.0 7.0 0.00 0.00 0.00 84 1014.5
20240222044045 66 0 0.9 9.6 0.00 0.00 0.00 84 1014.6
20240222043545 66 98 1.7 9.6 0.00 0.00 0.00 84 1014.4
20240222043104 66 71 2.6 11.3 0.00 0.00 0.00 84 1014.5
20240222042546 66 76 3.5 11.3 0.00 0.00 0.00 84 1014.5
20240222042046 66 70 0.9 7.8 0.00 0.00 0.00 84 1014.3
20240222041552 66 51 0.9 11.3 0.00 0.00 0.00 84 1014.3
20240222041047 66 68 1.7 11.3 0.00 0.00 0.00 84 1014.2
20240222040546 66 78 1.7 7.8 0.00 0.00 0.00 84 1014.2
20240222040055 66 155 1.7 8.7 0.00 0.00 0.00 84 1014.2
20240222035552 66 85 2.6 13.9 0.00 0.00 0.00 84 1014.1
20240222035045 66 104 2.6 13.9 0.00 0.00 0.00 83 1014.1
20240222034551 66 68 2.6 13.9 0.00 0.00 0.00 83 1014.1
20240222034044 67 68 1.7 10.4 0.00 0.00 0.00 83 1014.1
20240222033545 67 259 1.7 8.7 0.00 0.00 0.00 83 1014.1
20240222033048 67 56 0.9 8.7 0.00 0.00 0.00 82 1014.1
20240222032544 67 0 1.7 8.7 0.00 0.00 0.00 82 1014.0
20240222032046 67 74 0.9 8.7 0.00 0.00 0.00 82 1013.9
20240222031551 67 68 2.6 9.6 0.00 0.00 0.00 82 1014.0
20240222031046 67 78 0.9 9.6 0.00 0.00 0.00 81 1014.1
20240222030546 67 85 1.7 8.7 0.00 0.00 0.00 81 1014.2
20240222030054 67 68 0.9 8.7 0.00 0.00 0.00 81 1014.1
20240222025549 67 69 0.9 7.8 0.00 0.00 0.00 80 1014.0
20240222025045 67 68 0.9 9.6 0.00 0.00 0.00 79 1014.0
20240222024555 67 207 1.7 9.6 0.00 0.00 0.00 79 1013.7
20240222024046 68 66 1.7 8.7 0.00 0.00 0.00 78 1013.6
20240222023545 68 66 0.9 8.7 0.00 0.00 0.00 78 1013.5
20240222023057 68 112 2.6 8.7 0.00 0.00 0.00 78 1013.4
20240222022546 68 60 0.9 11.3 0.00 0.00 0.00 77 1013.4
20240222022044 68 0 2.6 11.3 0.00 0.00 0.00 76 1013.3
20240222021551 69 143 2.6 11.3 0.00 0.00 0.00 76 1013.1
20240222021045 69 89 2.6 8.7 0.00 0.00 0.00 76 1013.0
20240222020545 69 75 0.9 8.7 0.00 0.00 0.00 75 1013.1
20240222020057 69 0 1.7 7.8 0.00 0.00 0.00 75 1013.3
20240222015544 69 73 1.7 7.8 0.00 0.00 0.00 75 1013.3
20240222015044 70 91 0.9 7.8 0.00 0.00 0.00 74 1013.3
20240222014554 70 79 0.9 6.1 0.00 0.00 0.00 74 1013.3
20240222014046 70 60 1.7 10.4 0.00 0.00 0.00 74 1013.2
20240222013546 70 59 0.9 10.4 0.00 0.00 0.00 74 1013.3
20240222013101 71 90 1.7 8.7 0.00 0.00 0.00 73 1013.2
20240222012544 71 70 0.0 9.6 0.00 0.00 0.00 73 1013.4
20240222012046 71 61 1.7 9.6 0.00 0.00 0.00 73 1013.6
20240222011554 71 166 1.7 7.0 0.00 0.00 0.00 72 1013.5
20240222011046 72 72 0.0 7.0 0.00 0.00 0.00 72 1013.6
20240222010548 72 0 0.9 9.6 0.00 0.00 0.00 71 1013.8
20240222010059 72 78 0.9 9.6 0.00 0.00 0.00 71 1013.8
20240222005545 72 71 2.6 9.6 0.00 0.00 0.00 70 1013.9
20240222005046 72 55 0.9 2.6 0.00 0.00 0.00 70 1013.9
20240222004610 73 143 0.0 8.7 0.00 0.00 0.00 70 1014.0
20240222004045 73 155 0.0 10.4 0.00 0.00 0.00 70 1014.1
20240222003547 73 248 0.9 10.4 0.00 0.00 0.00 69 1014.3
20240222003107 74 76 1.7 10.4 0.00 0.00 0.00 69 1014.3
20240222002545 74 149 1.7 10.4 0.00 0.00 0.00 68 1014.2
20240222002046 74 96 1.7 7.0 0.00 0.00 0.00 67 1014.3
20240222001620 74 60 0.9 6.1 0.00 0.00 0.00 66 1014.4
20240222001045 74 71 0.9 10.4 0.00 0.00 0.00 66 1014.5
20240222000545 75 66 0.9 10.4 0.00 0.00 0.00 66 1014.3
20240222000105 75 106 0.0 7.0 0.00 0.00 0.00 66 1014.2
20240221235545 75 96 1.7 6.1 0.00 0.00 0.00 65 1014.5
20240221235046 75 0 0.9 6.1 0.00 0.00 0.00 65 1014.6
20240221234604 75 99 1.7 6.1 0.00 0.00 0.00 65 1014.6
20240221234047 75 72 0.9 7.8 0.00 0.00 0.00 65 1014.6
20240221233546 76 62 1.7 7.8 0.00 0.00 0.00 65 1014.6
20240221233105 76 76 1.7 8.7 0.00 0.00 0.00 65 1014.6
20240221232545 76 72 1.7 8.7 0.00 0.00 0.00 65 1014.5
20240221232044 76 77 0.9 8.7 0.00 0.00 0.00 65 1014.3
20240221231602 76 0 0.9 8.7 0.00 0.00 0.00 65 1014.2
20240221231045 76 39 0.9 4.3 0.00 0.00 0.00 65 1014.2
20240221230545 76 54 0.0 7.0 0.00 0.00 0.00 65 1014.4
20240221230108 76 0 0.9 10.4 0.00 0.00 0.00 66 1014.3
20240221225545 76 90 1.7 10.4 0.00 0.00 0.00 66 1014.3
20240221225047 76 66 1.7 10.4 0.00 0.00 0.00 66 1014.4
20240221224603 76 61 0.9 6.1 0.00 0.00 0.00 66 1014.4
20240221224045 76 64 0.9 7.0 0.00 0.00 0.00 67 1014.5
20240221223545 76 0 0.9 7.0 0.00 0.00 0.00 67 1014.5
20240221223055 76 85 0.9 8.7 0.00 0.00 0.00 66 1014.6
20240221222546 76 78 1.7 8.7 0.00 0.00 0.00 66 1014.7
20240221222044 76 76 1.7 8.7 0.00 0.00 0.00 66 1014.9
20240221221601 76 74 1.7 7.0 0.00 0.00 0.00 66 1015.0
20240221221045 76 75 0.9 9.6 0.00 0.00 0.00 66 1015.0
20240221220546 76 0 0.9 9.6 0.00 0.00 0.00 67 1015.2
20240221220106 76 66 2.6 9.6 0.00 0.00 0.00 67 1015.4
20240221215546 76 74 0.9 8.7 0.00 0.00 0.00 66 1015.4
20240221215046 76 70 2.6 8.7 0.00 0.00 0.00 67 1015.4
20240221214627 76 89 1.7 7.0 0.00 0.00 0.00 67 1015.5
20240221214045 76 81 1.7 7.0 0.00 0.00 0.00 67 1015.6
20240221213546 76 0 1.7 7.8 0.00 0.00 0.00 66 1015.7
20240221213122 76 114 0.9 9.6 0.00 0.00 0.00 68 1015.7
20240221212546 75 66 0.9 9.6 0.00 0.00 0.00 67 1015.8
20240221212046 75 60 1.7 9.6 0.00 0.00 0.00 67 1015.9
20240221211620 75 247 0.9 7.8 0.00 0.00 0.00 68 1016.1
20240221211045 75 101 2.6 7.8 0.00 0.00 0.00 67 1016.2
20240221210616 75 70 1.7 7.8 0.00 0.00 0.00 67 1016.3
20240221210113 75 83 1.7 7.8 0.00 0.00 0.00 67 1016.4
20240221205546 76 96 1.7 7.0 0.00 0.00 0.00 67 1016.6
20240221205045 75 74 0.9 7.8 0.00 0.00 0.00 68 1016.8
20240221204608 75 18 1.7 7.8 0.00 0.00 0.00 68 1016.8
20240221204049 74 85 2.6 13.0 0.00 0.00 0.00 68 1016.9
20240221203545 74 63 2.6 13.0 0.00 0.00 0.00 68 1016.9
20240221203102 74 68 2.6 7.8 0.00 0.00 0.00 68 1017.0
20240221202545 74 89 1.7 7.8 0.00 0.00 0.00 69 1017.2
20240221202045 74 119 1.7 7.8 0.00 0.00 0.00 69 1017.3
20240221201553 74 132 1.7 12.2 0.00 0.00 0.00 71 1017.5
20240221201049 73 82 2.6 12.2 0.00 0.00 0.00 70 1017.6
20240221200545 74 81 2.6 12.2 0.00 0.00 0.00 69 1017.8
20240221200058 74 112 1.7 7.8 0.00 0.00 0.00 71 1017.8
20240221195546 74 208 2.6 7.8 0.00 0.00 0.00 70 1018.0
20240221195045 73 245 1.7 8.7 0.00 0.00 0.00 72 1018.0
20240221194558 72 104 1.7 8.7 0.00 0.00 0.00 74 1018.1
20240221194049 72 81 1.7 8.7 0.00 0.00 0.00 74 1018.3
20240221193546 72 305 1.7 10.4 0.00 0.00 0.00 74 1018.4
20240221193104 72 85 2.6 10.4 0.00 0.00 0.00 74 1018.6
20240221192546 72 105 2.6 13.0 0.00 0.00 0.00 74 1018.8
20240221192049 72 129 2.6 13.0 0.00 0.00 0.00 75 1018.9
20240221191557 71 90 2.6 10.4 0.00 0.00 0.00 75 1019.1
20240221191046 71 85 2.6 10.4 0.00 0.00 0.00 75 1019.2
20240221190545 72 88 1.7 8.7 0.00 0.00 0.00 75 1019.5
20240221190104 72 78 0.9 7.8 0.00 0.00 0.00 75 1019.5
20240221185546 72 99 0.9 7.8 0.00 0.00 0.00 75 1019.7
20240221185050 72 79 2.6 7.8 0.00 0.00 0.00 74 1019.8
20240221184559 72 88 1.7 7.8 0.00 0.00 0.00 74 1019.9
20240221184046 72 74 0.0 6.1 0.00 0.00 0.00 76 1019.8
20240221183545 71 72 1.7 7.8 0.00 0.00 0.00 75 1019.9
20240221183053 72 87 2.6 7.8 0.00 0.00 0.00 74 1020.0
20240221182546 72 89 1.7 7.8 0.00 0.00 0.00 74 1020.2
20240221182045 72 255 1.7 8.7 0.00 0.00 0.00 73 1020.2
20240221181555 72 91 2.6 8.7 0.00 0.00 0.00 73 1020.3
20240221181045 72 89 1.7 8.7 0.00 0.00 0.00 74 1020.4
20240221180545 72 99 2.6 12.2 0.00 0.00 0.00 74 1020.6
20240221180055 71 199 1.7 12.2 0.00 0.00 0.00 75 1020.6
20240221175545 71 78 1.7 7.8 0.00 0.00 0.00 75 1020.7
20240221175046 71 249 1.7 9.6 0.00 0.00 0.00 75 1020.8
20240221174551 71 101 2.6 9.6 0.00 0.00 0.00 75 1020.9
20240221174048 70 91 1.7 8.7 0.00 0.00 0.00 77 1020.9
20240221173544 69 0 1.7 10.4 0.00 0.00 0.00 77 1021.1
20240221173107 69 74 0.9 10.4 0.00 0.00 0.00 77 1021.2
20240221172551 69 90 1.7 9.6 0.00 0.00 0.00 77 1021.4
20240221172044 69 84 0.9 8.7 0.00 0.00 0.00 78 1021.4
20240221171550 69 85 3.5 7.8 0.00 0.00 0.00 78 1021.5
20240221171044 69 180 2.6 7.8 0.00 0.00 0.00 77 1021.7
20240221170544 69 99 1.7 9.6 0.00 0.00 0.00 77 1021.7
20240221170052 69 0 2.6 9.6 0.00 0.00 0.00 77 1021.7
20240221165545 69 101 3.5 9.6 0.00 0.00 0.00 76 1021.8
20240221165046 69 167 0.9 7.8 0.00 0.00 0.00 76 1021.9
20240221164554 70 74 1.7 7.8 0.00 0.00 0.00 75 1021.9
20240221164045 70 87 2.6 9.6 0.00 0.00 0.00 76 1021.9
20240221163546 69 107 2.6 9.6 0.00 0.00 0.00 76 1021.9
20240221163052 69 74 1.7 7.0 0.00 0.00 0.00 76 1021.9
20240221162546 69 68 2.6 7.0 0.00 0.00 0.00 77 1022.0
20240221162045 69 77 0.9 7.8 0.00 0.00 0.00 78 1022.0
20240221161608 68 85 1.7 10.4 0.00 0.00 0.00 80 1022.0
20240221161045 67 75 0.9 10.4 0.00 0.00 0.00 81 1022.1
20240221160545 66 87 2.6 10.4 0.00 0.00 0.00 81 1022.0
20240221160051 66 81 0.9 7.0 0.00 0.00 0.00 81 1022.1
20240221155545 66 148 2.6 7.0 0.00 0.00 0.00 81 1022.1
20240221155045 66 89 0.9 6.1 0.00 0.00 0.00 82 1022.1
20240221154552 66 85 0.9 6.1 0.00 0.00 0.00 82 1022.0
20240221154044 65 88 1.7 6.1 0.00 0.00 0.00 83 1022.0
20240221153545 65 83 0.9 7.0 0.00 0.00 0.00 84 1022.1
20240221153053 65 0 1.7 9.6 0.00 0.00 0.00 84 1021.9
20240221152544 65 337 0.0 9.6 0.00 0.00 0.00 85 1021.9
20240221152044 64 113 1.7 9.6 0.00 0.00 0.00 85 1022.0
20240221151552 64 100 1.7 7.8 0.00 0.00 0.00 85 1021.9
20240221151044 64 157 0.9 5.2 0.00 0.00 0.00 86 1021.9
20240221150549 64 112 0.9 4.3 0.00 0.00 0.00 86 1021.8
20240221150100 64 105 0.0 6.1 0.00 0.00 0.00 86 1021.9
20240221145545 64 84 0.9 7.0 0.00 0.00 0.00 86 1021.9
20240221145049 64 85 0.9 7.0 0.00 0.00 0.00 87 1021.7
20240221144557 64 87 0.9 5.2 0.00 0.00 0.00 86 1021.7
20240221144046 63 0 0.9 4.3 0.00 0.00 0.00 86 1021.6
20240221143547 63 103 0.0 7.0 0.00 0.00 0.00 86 1021.6
20240221143100 63 229 1.7 7.0 0.00 0.00 0.00 86 1021.6
20240221142551 63 82 0.0 4.3 0.00 0.00 0.00 86 1021.5
20240221142044 63 106 0.9 7.0 0.00 0.00 0.00 86 1021.5
20240221141603 63 0 0.0 7.0 0.00 0.00 0.00 86 1021.4
20240221141048 63 90 0.0 7.0 0.00 0.00 0.00 86 1021.5
20240221140545 63 87 0.0 6.1 0.00 0.00 0.00 86 1021.4
20240221140055 63 0 1.7 6.1 0.00 0.00 0.00 86 1021.4
20240221135544 63 0 0.9 7.0 0.00 0.00 0.00 86 1021.3
20240221135044 63 0 0.0 7.0 0.00 0.00 0.00 87 1021.3
20240221134603 63 83 0.0 5.2 0.00 0.00 0.00 87 1021.4
20240221134046 63 0 0.0 5.2 0.00 0.00 0.00 87 1021.5
20240221133544 63 0 0.9 4.3 0.00 0.00 0.00 87 1021.4
20240221133054 63 0 0.0 7.8 0.00 0.00 0.00 86 1021.5
20240221132545 63 68 1.7 7.8 0.00 0.00 0.00 87 1021.5
20240221132049 63 85 0.0 4.3 0.00 0.00 0.00 87 1021.6
20240221131601 63 85 0.0 6.1 0.00 0.00 0.00 87 1021.5
20240221131046 63 81 0.9 6.1 0.00 0.00 0.00 87 1021.5
20240221130545 63 76 0.9 7.0 0.00 0.00 0.00 86 1021.5
20240221130103 63 103 0.0 7.0 0.00 0.00 0.00 87 1021.5
20240221125545 63 89 0.9 7.0 0.00 0.00 0.00 87 1021.4
20240221125045 63 92 0.0 3.5 0.00 0.00 0.00 87 1021.5
20240221124558 63 79 0.0 4.3 0.00 0.00 0.00 87 1021.5
20240221124044 63 83 0.0 8.7 0.00 0.00 0.00 87 1021.5
20240221123546 63 0 0.9 8.7 0.00 0.00 0.00 87 1021.4
20240221123057 63 150 0.0 6.1 0.00 0.00 0.00 87 1021.4
20240221122542 63 116 0.9 6.1 0.00 0.00 0.00 87 1021.5
20240221122046 63 93 0.9 5.2 0.00 0.00 0.00 87 1021.5
20240221121548 63 91 0.0 7.8 0.00 0.00 0.00 87 1021.4
20240221121046 63 0 0.0 7.8 0.00 0.00 0.00 87 1021.4
20240221120545 63 129 0.9 7.8 0.00 0.00 0.00 87 1021.3
20240221120050 63 199 0.9 7.0 0.00 0.00 0.00 87 1021.4
20240221115546 63 72 0.9 3.5 0.00 0.00 0.00 88 1021.4
20240221115050 63 91 0.9 3.5 0.00 0.00 0.00 88 1021.4
20240221114556 63 0 0.0 6.1 0.00 0.00 0.00 88 1021.4
20240221114046 63 83 0.0 6.1 0.00 0.00 0.00 88 1021.3
20240221113546 63 0 0.9 6.1 0.00 0.00 0.00 88 1021.4
20240221113103 63 89 0.9 5.2 0.00 0.00 0.00 88 1021.2
20240221112546 63 0 0.9 4.3 0.00 0.00 0.00 89 1021.2
20240221112044 62 80 0.0 3.5 0.00 0.00 0.00 89 1021.2
20240221111550 62 92 0.0 3.5 0.00 0.00 0.00 89 1021.1